Hourly Data Report for November 02, 2019

All times are specified in Local Standard Time (LST). Add 1 hour to adjust for Daylight Saving Time where and when it is observed.

SATURNA ISLAND CS
BRITISH COLUMBIA
Current Station Operator: ECCC - MSC

48°47'02.067" N
123°02'41.082" W
24.40 m
1017101
71473
WEZ

Download Data

Hourly Data (November 2019)
Hourly Data Report for November 2, 2019
TIME Temp Definition
°C
Dew Point Definition
°C
Rel Hum Definition
%
Wind Dir Definition
10's deg

Wind Spd Definition
km/h
Visibility Definition
km
Stn Press Definition
kPa
Hmdx Definition


Wind Chill Definition


Weather Definition


00:00 8.0 7.0 94 27 3   102.62     LegendNANA
01:00 7.9 7.1 95 30 3   102.60     LegendNANA
02:00 7.9 7.0 94 30 3   102.56     LegendNANA
03:00 7.2 6.4 95 32 2   102.52     LegendNANA
04:00 7.1 6.5 96 29 2   102.49     LegendNANA
05:00 7.3 6.7 96 24 1   102.46     LegendNANA
06:00 6.8 6.2 96   0   102.43     LegendNANA
07:00 6.9 6.4 96 0 1   102.41     LegendNANA
08:00 7.8 6.6 92 31 3   102.42     LegendNANA
09:00 8.4 5.7 84 33 6   102.41     LegendNANA
10:00 9.5 6.1 79 31 5   102.44     LegendNANA
11:00 9.2 5.8 80 31 4   102.39     LegendNANA
12:00 9.5 4.9 73 33 7   102.32     LegendNANA
13:00 10.8 4.8 66 31 4   102.25     LegendNANA
14:00 10.2 5.2 71 32 2   102.19     LegendNANA
15:00 8.9 6.0 82 30 2   102.16     LegendNANA
16:00 8.7 6.3 85 29 5   102.09     LegendNANA
17:00 7.9 6.4 91 28 2   102.06     LegendNANA
18:00 7.7 6.5 92 31 3   102.06     LegendNANA
19:00 7.6 6.6 93   0   102.06     LegendNANA
20:00 8.1 7.2 94 25 7   102.06     LegendNANA
21:00 8.1 7.2 94 23 9   102.07     LegendNANA
22:00 8.1 7.2 94 24 10   102.08     LegendNANA
23:00 8.1 7.1 94 24 8   102.05     LegendNANA

Notes on Data Quality.

Legend

  • E = Estimated
  • M = Missing
  • NA = Not Available
Date modified: